Tracking 19634 objects as of 23-May-2019
HD Live streaming from Space Station
objects crossing your sky now

ECHOSTAR 6

Track ECHOSTAR 6 now!
ECHOSTAR 6 is classified as:


NORAD ID: 26402
Int'l Code: 2000-038A
Perigee: 36,197.3 km
Apogee: 36,232.3 km
Inclination: 5.5 °
Period: 1,457.7 minutes
Semi major axis: 42585 km
RCS: 25.1188 m2 (large)
Launch date: July 14, 2000
Source: United States (US)
Launch site: AIR FORCE EASTERN TEST RANGE (AFETR)

CONUS, Hawaii, Alaska and Puerto Rico; 32 Ku-band transponders
aabbcc
Your satellite tracking list
Your tracking list is empty




NASA's NSSDC Master Catalog

Two Line Element Set (TLE):
1 26402U 00038A   19141.83579795 -.00000026  00000-0  00000+0 0  9992
2 26402   5.5207  63.7440 0004110 324.8891 242.9476  0.98788434 68953
Source of the keplerian elements: AFSPC